GFSMW_925_rhum_027.txt.gz
RH
30 29 27 26 28 26 25 25 30 31 50 98 100 100 100 99 99 100 93 89 86 81 74 76 81 83 89 84 60 38 33 25 22 31 39 35 39 47 45 37 35 31 28
32 32 31 29 27 26 24 24 24 29 33 70 90 96 98 99 100 100 99 91 89 87 81 73 75 78 90 80 51 41 33 25 25 34 43 39 38 38 38 39 36 32 28
33 31 29 30 29 30 28 26 25 25 29 43 85 97 95 98 99 100 99 93 93 91 87 80 79 79 86 81 64 46 40 27 28 24 32 42 36 39 38 35 36 32 29
28 29 30 30 26 26 31 28 27 27 29 34 86 94 91 91 97 100 100 100 95 94 93 86 86 86 81 78 72 57 43 36 29 28 28 27 32 37 37 41 39 34 31
37 38 38 37 39 36 32 37 28 28 27 30 67 95 96 92 94 98 99 100 100 100 98 91 87 91 78 73 69 56 44 38 31 26 28 29 28 26 31 36 38 43 38
43 45 46 46 45 40 36 35 39 35 27 30 54 99 99 98 100 99 100 100 100 100 100 98 90 89 87 73 74 58 48 46 32 28 24 23 30 34 34 32 36 35 42
43 44 48 51 51 46 42 36 38 38 40 36 32 57 100 100 100 100 100 100 100 100 99 98 93 89 89 83 76 63 53 46 38 33 25 22 23 26 24 31 44 41 45
43 46 49 55 56 53 50 46 38 40 34 38 44 45 47 97 96 100 100 95 93 92 99 97 94 90 86 81 74 68 58 50 47 38 31 27 27 29 27 28 36 47 47
51 53 55 60 62 60 55 51 45 39 40 37 37 41 63 89 92 97 99 100 99 95 93 96 96 91 87 83 77 72 62 55 46 41 35 43 31 29 34 45 30 32 38
58 59 59 63 65 66 62 60 59 54 52 51 47 43 44 57 78 91 98 99 100 100 98 94 96 94 91 85 80 72 62 52 44 39 32 35 44 60 58 38 34 31 30
66 66 64 69 72 70 73 78 79 77 74 74 71 65 56 51 49 55 51 69 100 100 100 96 94 94 91 86 83 84 63 46 39 36 42 66 67 49 50 53 60 57 50
68 62 62 72 81 87 93 92 89 81 77 74 73 72 73 66 61 62 74 95 100 99 99 96 93 91 87 82 76 68 53 44 43 63 68 67 74 76 68 61 62 54 58
63 62 67 80 90 97 99 96 92 82 72 77 80 80 86 85 89 93 94 100 98 98 94 93 90 86 81 74 65 59 57 53 61 72 88 88 82 76 68 61 61 66 86
68 64 67 72 88 90 92 93 96 83 76 78 89 94 94 94 91 96 98 97 94 90 87 84 78 73 68 64 61 55 63 81 88 83 71 69 74 85 86 92 97 96 63
70 66 70 78 86 94 95 98 97 90 80 83 91 97 95 96 97 96 92 88 86 80 75 73 70 68 65 60 58 66 81 85 87 89 96 96 89 92 99 93 89 92 93
73 66 70 81 89 96 95 98 98 93 90 90 88 89 90 89 86 84 86 84 86 81 80 78 73 75 76 79 87 91 94 96 96 94 93 100 98 65 64 95 98 99 94
72 71 72 80 91 99 100 100 100 97 92 94 91 89 93 91 96 96 94 93 93 88 93 98 99 100 100 96 94 92 91 94 98 94 80 55 61 56 53 55 72 74 72
76 77 80 88 98 100 100 99 99 99 100 100 100 100 99 99 99 98 100 100 100 100 100 100 100 100 100 100 98 97 97 93 84 60 55 63 77 73 78 85 82 76 76
77 84 94 100 99 100 100 98 99 100 100 100 100 100 100 100 100 100 100 100 100 100 100 100 100 99 99 98 98 95 71 51 69 78 76 79 76 58 79 76 75 86 90
88 90 97 100 99 100 98 99 100 99 100 100 100 100 99 99 99 100 100 100 100 100 99 99 99 99 99 97 67 54 53 65 75 76 74 65 77 78 80 86 97 89 81
89 94 98 100 100 100 100 100 99 100 100 100 100 100 100 99 100 99 100 100 99 99 98 98 97 90 86 91 92 67 62 69 76 75 72 72 90 88 87 83 82 77 73
78 85 97 98 97 95 98 95 98 100 99 100 100 100 100 100 100 99 100 96 86 63 60 71 73 73 68 74 76 74 77 84 78 81 80 85 94 88 84 79 76 77 81
69 74 82 83 90 91 88 72 75 88 86 86 82 80 71 55 43 38 39 40 39 41 45 46 43 39 35 51 76 76 79 79 81 84 94 90 85 78 58 68 78 79 64
67 68 72 71 69 67 71 70 67 58 42 38 38 37 35 34 34 34 34 34 36 36 36 40 43 47 51 66 70 73 73 77 80 82 83 77 64 56 71 60 60 67 79
64 65 70 69 61 57 59 58 45 38 37 39 39 35 32 29 28 31 30 31 34 30 32 40 43 44 59 71 74 76 79 81 80 86 67 59 65 70 72 75 79 85 90
63 64 68 64 58 47 42 42 38 38 38 35 34 32 32 39 49 58 64 64 64 65 54 55 59 58 68 72 74 82 79 77 78 61 66 74 80 84 88 91 93 92 94

GFSMW_925_rhum_033.txt.gz
RH
16 18 22 23 24 24 25 26 27 27 29 34 46 88 96 98 100 93 70 72 74 76 79 77 70 71 82 84 70 61 51 46 40 32 34 35 34 40 40 37 38 38 43
17 19 18 20 22 23 24 25 27 28 29 30 32 43 74 88 95 96 97 94 84 80 80 84 82 75 77 79 73 62 53 47 40 40 41 44 36 35 39 39 37 35 38
19 18 21 26 30 31 33 30 28 28 28 29 30 36 49 64 79 91 96 98 99 89 81 83 89 84 79 81 76 66 56 51 44 43 42 49 47 36 36 40 40 36 35
23 26 27 30 33 40 45 40 39 33 30 30 30 34 42 56 66 67 73 86 92 96 94 84 87 88 86 87 80 71 60 55 50 46 41 37 38 46 49 39 41 39 35
28 28 32 36 35 43 48 47 40 35 36 33 33 34 39 46 55 60 61 64 77 89 94 92 88 94 91 90 84 75 63 61 59 53 46 42 36 39 43 50 42 40 38
30 31 35 37 37 46 49 48 43 37 35 38 40 35 39 42 49 54 57 62 69 79 84 91 92 94 92 95 89 81 70 70 64 58 51 44 42 40 38 45 44 43 40
32 36 38 41 43 48 50 47 43 41 38 35 37 39 38 37 45 52 57 62 72 75 84 89 95 94 99 95 91 88 79 76 71 62 59 50 45 36 34 33 41 45 40
37 40 42 43 44 47 50 50 50 48 45 43 39 42 42 47 46 42 56 68 76 78 80 87 89 95 96 97 100 95 90 85 79 74 65 59 50 43 40 50 46 53 45
42 42 41 42 46 50 52 55 56 55 55 56 55 48 46 45 52 60 61 64 69 74 77 84 86 87 90 100 100 100 94 91 89 83 75 67 65 68 57 56 69 80 83
43 41 41 45 51 55 58 59 60 60 61 61 60 58 55 54 54 53 58 64 65 69 83 91 90 96 99 99 100 100 99 98 95 92 90 78 68 55 53 63 64 68 70
46 44 44 49 53 58 62 63 63 66 62 62 58 60 60 61 62 58 54 53 62 72 80 90 90 90 94 99 100 100 100 99 96 92 85 77 69 71 82 80 85 90 84
47 45 45 48 54 63 66 67 68 67 68 65 63 63 65 69 69 67 71 72 78 82 89 89 91 92 93 96 98 100 100 97 93 90 84 87 94 99 98 95 89 85 84
48 47 45 48 57 67 72 72 72 70 68 67 68 74 81 82 80 79 79 82 84 89 90 91 89 90 91 93 94 96 96 94 94 92 95 100 97 95 95 95 97 97 96
51 50 49 50 59 68 76 82 81 74 70 72 77 84 86 84 83 83 83 82 83 84 83 83 84 84 85 86 88 87 92 97 100 100 97 92 90 89 98 100 100 96 98
53 52 53 53 63 78 85 88 85 78 73 82 84 88 92 92 92 90 90 87 84 81 79 81 81 82 80 81 82 86 91 94 96 97 99 99 99 98 92 92 99 99 98
56 55 56 64 77 87 90 90 89 82 77 86 91 91 93 98 98 99 100 100 99 90 88 90 87 86 93 94 87 85 91 94 95 94 97 98 100 100 99 97 95 90 92
58 61 65 76 85 91 95 95 94 82 85 89 91 95 98 100 99 100 100 100 99 99 100 100 100 100 100 100 100 96 94 94 98 100 100 100 99 93 80 94 97 98 94
60 65 74 80 83 92 99 100 100 94 94 96 96 99 100 99 99 99 100 100 99 99 100 100 100 99 100 100 99 98 100 98 98 98 95 89 75 71 72 77 81 85 82
60 71 82 83 89 94 96 100 98 99 99 99 100 100 99 100 100 99 100 100 98 99 99 98 95 98 99 99 100 99 98 98 95 84 86 78 72 65 84 77 76 81 71
65 73 78 77 89 98 97 98 98 99 99 99 99 99 99 99 99 100 100 100 99 99 98 99 100 99 99 99 92 80 78 92 86 75 71 59 73 78 80 80 75 76 71
68 72 75 79 86 93 98 99 98 99 99 99 99 99 100 100 99 100 100 98 98 96 94 85 82 94 92 87 80 70 62 60 58 54 57 65 82 89 87 86 80 71 74
72 70 77 82 87 90 93 99 99 99 99 98 99 100 99 100 98 94 92 83 75 72 66 57 60 68 73 73 78 81 79 72 64 66 67 74 91 89 85 75 68 75 79
69 70 74 79 82 80 79 80 81 75 74 72 64 53 44 40 37 37 36 36 35 36 35 37 35 37 50 64 77 80 77 77 75 78 85 79 73 67 64 60 73 77 61
63 69 70 71 74 72 72 70 66 60 43 38 36 34 33 32 33 34 32 32 29 28 26 28 33 38 46 56 63 66 64 66 70 77 77 68 56 54 61 60 56 58 60
62 67 65 65 64 65 61 58 46 38 40 38 37 34 29 26 31 40 39 37 42 36 32 40 39 39 44 62 76 77 77 77 70 75 62 46 46 51 54 58 65 70 71
65 66 67 67 61 60 56 46 39 40 39 32 32 34 37 43 46 50 58 67 70 58 40 46 46 52 60 72 73 82 79 82 74 66 46 46 52 59 66 72 76 83 87

GFSMW_925_rhum_036.txt.gz
RH
17 16 22 22 23 23 24 24 26 26 26 29 42 71 80 80 76 84 79 74 70 70 76 72 72 73 75 76 76 80 64 53 46 38 31 33 33 37 40 40 41 43 44
19 22 18 20 22 23 24 25 26 28 28 29 30 36 73 76 71 73 70 76 79 76 74 79 78 75 82 84 83 76 67 56 47 37 37 56 42 35 38 41 38 39 40
23 22 23 30 33 38 37 36 31 28 28 28 29 30 31 50 80 86 85 78 78 87 86 82 76 80 78 84 88 76 69 57 49 40 46 68 64 45 36 39 40 38 38
29 32 32 34 38 46 48 45 40 38 33 29 29 30 32 37 46 71 76 80 78 77 79 88 95 80 84 79 81 85 74 61 52 43 44 45 41 54 51 38 41 39 37
33 34 36 36 42 47 50 50 46 38 35 39 37 33 34 35 38 43 61 68 70 74 85 84 88 98 86 90 86 87 82 67 62 56 48 50 43 41 54 57 46 42 40
36 36 38 39 43 48 50 50 44 43 40 37 37 41 37 36 40 43 53 58 59 64 72 80 78 82 88 93 96 95 92 76 67 61 60 53 52 48 47 60 53 47 46
43 45 46 46 46 48 50 51 51 50 48 46 42 39 41 44 43 38 40 52 60 66 70 70 74 84 86 89 94 100 98 89 72 70 65 62 58 52 44 43 54 54 43
48 48 46 46 46 49 52 54 56 56 56 58 58 53 46 46 46 53 55 48 55 67 71 71 74 79 86 88 86 89 99 98 87 79 79 74 66 60 53 45 49 76 71
48 47 44 46 49 53 57 60 60 60 62 61 61 60 58 55 54 52 53 62 68 72 75 78 86 81 87 87 88 91 99 100 98 88 89 85 74 66 59 52 54 73 92
49 49 48 50 53 57 61 62 63 65 65 64 61 59 60 61 61 60 57 53 56 64 69 76 77 80 86 100 100 100 100 100 100 98 96 93 86 78 72 71 81 88 89
54 51 49 49 54 61 65 66 68 68 68 66 65 65 67 70 71 70 68 69 67 72 72 82 88 84 82 83 84 92 98 99 100 100 100 98 94 88 80 79 83 89 93
54 51 48 49 58 66 70 71 74 72 69 68 72 78 82 82 81 81 81 80 83 84 88 88 91 90 90 88 89 94 98 99 99 99 100 98 92 85 88 89 93 97 98
55 54 53 53 63 68 74 81 82 76 71 74 80 83 85 83 83 82 82 84 86 87 89 90 89 90 91 94 94 94 96 97 98 99 98 98 97 100 99 99 95 96 99
55 56 58 57 69 79 83 85 84 80 74 80 85 88 91 92 89 87 86 82 77 78 80 80 81 82 83 88 90 90 95 96 99 100 99 99 100 99 100 99 100 100 99
59 58 62 71 74 82 83 85 84 80 78 86 90 91 93 96 95 94 92 91 87 85 85 83 82 82 83 85 84 89 95 98 99 100 100 100 100 100 99 99 98 95 93
59 61 66 74 76 85 85 90 89 82 83 89 92 94 98 100 100 100 98 94 96 94 92 92 92 93 98 99 94 91 95 99 100 100 100 100 100 100 99 99 100 99 96
63 69 78 80 79 87 95 99 98 86 89 89 95 98 100 100 100 100 98 98 99 99 99 99 98 99 99 100 98 93 96 98 99 100 100 99 100 99 99 99 98 100 99
66 73 79 80 86 92 96 99 98 99 99 98 99 99 99 100 100 99 100 100 100 100 100 100 100 99 100 99 97 94 95 97 98 97 96 89 86 71 71 79 71 72 72
72 78 81 83 88 90 94 99 99 99 99 100 99 100 100 100 100 99 99 100 99 98 97 100 100 98 100 100 98 94 97 97 95 83 74 72 70 75 85 79 78 77 75
75 80 78 84 90 92 92 99 99 99 100 99 100 100 100 99 99 99 100 100 100 100 100 100 100 97 90 81 67 62 66 69 73 73 60 68 75 81 83 86 81 79 74
72 75 75 82 91 93 99 99 99 100 99 98 97 98 99 98 99 99 100 98 94 78 73 78 84 91 81 83 77 70 62 59 56 57 62 70 84 90 90 89 81 76 78
72 74 79 84 89 91 92 99 98 98 96 97 98 98 98 97 92 82 66 56 51 49 49 49 61 67 69 75 79 79 76 77 68 69 72 81 92 87 82 76 69 75 78
74 72 80 85 88 91 91 95 94 86 83 81 65 53 49 53 55 40 37 36 36 35 35 35 36 36 48 56 71 72 74 72 64 72 79 83 76 69 56 61 69 72 50
74 71 78 83 83 82 81 77 76 71 62 42 37 34 33 33 32 33 32 31 28 27 26 30 36 40 46 58 66 68 69 70 69 79 76 68 61 56 57 58 57 59 61
67 71 74 76 77 75 73 69 65 50 39 37 36 35 31 27 29 35 41 38 32 40 36 41 42 39 56 68 73 75 79 77 74 77 57 50 46 51 57 59 66 70 72
67 71 70 69 70 69 64 60 47 38 40 37 34 31 30 37 47 51 50 45 42 41 37 45 42 52 65 71 73 82 81 83 77 65 51 47 55 60 68 76 81 84 87

GFSMW_925_rhum_039.txt.gz
RH
20 24 24 23 23 23 24 25 25 28 41 77 87 85 84 77 70 71 73 78 77 77 72 68 68 68 67 70 74 77 79 79 57 46 40 37 33 34 38 43 45 48 51
26 22 23 24 26 26 25 25 25 26 27 30 33 55 79 80 76 72 68 64 67 72 73 74 74 75 70 71 79 83 83 81 62 48 41 49 40 33 35 40 42 44 45
25 26 37 39 36 37 36 37 35 31 28 28 29 29 31 57 74 71 72 70 67 62 62 64 69 83 82 77 79 81 89 76 67 57 48 72 66 50 36 35 41 41 43
35 40 41 44 44 46 47 46 43 38 36 36 33 29 30 33 33 41 65 66 67 73 72 67 67 71 87 94 89 83 83 85 73 56 47 51 48 59 56 40 38 44 40
41 44 41 46 50 48 49 48 46 42 41 39 41 41 38 34 33 34 39 43 58 72 69 72 75 77 80 88 100 95 95 91 82 71 54 53 57 45 58 68 60 43 44
43 47 44 47 52 50 50 50 50 49 47 46 45 43 44 45 43 38 38 41 46 64 66 64 72 80 76 81 84 95 100 99 93 79 71 56 56 65 60 77 69 62 50
53 56 56 52 51 52 54 55 56 58 58 58 56 54 54 51 49 51 56 57 46 55 74 73 75 75 71 76 82 89 97 100 100 91 82 72 74 67 59 57 66 70 56
59 58 55 53 54 56 59 61 61 62 62 62 61 60 60 59 57 55 54 57 67 64 72 71 59 65 69 77 75 83 87 97 100 100 95 86 89 74 75 66 67 84 79
60 57 54 54 58 61 64 64 66 67 67 65 63 60 61 64 66 62 59 56 55 68 71 75 78 80 81 74 78 88 92 98 100 99 100 96 91 85 82 80 72 72 90
60 59 58 58 62 64 66 68 70 70 69 67 67 71 74 75 76 74 74 74 72 74 77 74 75 71 78 77 78 88 88 88 97 100 100 100 100 97 90 88 80 76 82
62 60 59 60 66 68 70 73 73 73 70 71 76 74 78 80 81 81 83 83 83 82 82 81 82 88 87 86 87 84 84 84 88 95 100 100 100 100 99 96 92 93 94
61 58 55 65 70 74 75 77 77 76 73 80 78 79 82 81 80 82 81 83 87 88 87 86 90 92 92 95 97 98 100 100 100 100 100 100 100 99 98 97 96 95 99
62 62 62 72 80 82 82 82 83 80 79 80 82 85 87 85 84 83 82 80 83 85 86 86 86 86 86 89 89 91 96 98 100 100 100 100 98 97 96 96 99 100 100
63 64 72 84 83 83 82 85 84 80 81 83 87 89 90 92 92 91 88 85 82 81 81 82 82 82 83 85 87 90 93 97 99 100 100 100 100 100 100 100 100 99 100
64 65 77 85 86 87 84 85 83 82 84 86 91 94 94 95 95 94 92 90 86 85 85 85 85 86 87 87 88 92 96 98 99 99 99 99 99 99 99 100 100 100 99
65 70 77 80 84 85 88 93 88 86 88 91 94 97 96 97 99 99 99 96 96 98 92 94 95 99 99 98 87 90 95 100 100 100 100 99 100 99 99 100 100 100 100
69 76 82 82 85 90 96 99 93 90 92 94 98 99 99 99 99 100 100 100 100 100 100 99 99 99 99 99 98 92 95 96 96 98 98 98 99 100 99 99 99 99 99
74 80 85 86 86 93 99 98 94 94 96 99 99 99 99 100 100 100 100 100 100 99 100 100 98 99 100 99 96 93 94 96 96 95 94 93 88 88 88 78 75 75 77
75 81 84 85 87 92 97 99 100 100 99 99 99 99 99 100 100 100 100 100 98 100 100 99 99 97 100 96 87 87 90 84 70 67 74 68 65 77 82 79 79 81 77
79 84 85 89 89 91 99 99 99 100 100 100 100 99 99 99 99 99 100 100 100 99 100 96 82 82 83 83 69 64 67 66 64 61 60 76 82 84 87 90 84 82 78
79 80 86 91 92 92 98 96 93 99 98 95 95 94 95 95 98 100 99 86 69 76 80 85 89 83 79 82 80 76 59 59 59 61 66 69 86 91 90 86 80 76 77
81 79 86 91 91 94 98 96 96 97 96 95 96 95 92 93 89 69 52 50 49 50 53 58 61 63 65 75 79 78 76 78 69 72 75 82 91 85 78 71 71 74 77
81 79 83 89 92 92 92 99 98 92 90 90 88 71 66 64 51 43 42 43 40 36 35 35 34 35 46 54 70 73 74 72 76 73 81 84 75 68 55 49 67 69 54
79 80 85 91 93 91 92 84 89 85 84 70 49 42 39 38 37 35 35 33 30 28 28 32 37 40 48 62 69 70 69 70 70 73 70 74 63 53 54 57 56 62 66
77 78 84 88 89 87 86 83 78 73 73 44 36 34 34 31 29 30 30 29 30 34 32 37 40 41 53 64 72 73 80 79 80 76 49 50 47 53 57 63 69 75 80
76 77 80 84 83 82 80 76 72 68 45 38 36 34 30 28 35 41 50 46 38 32 33 35 34 40 61 72 75 81 82 82 82 72 58 52 53 59 65 74 78 85 89

GFSMW_925_rhum_042.txt.gz
RH
28 27 27 26 26 26 26 27 47 76 83 86 86 83 82 79 74 72 74 73 74 79 79 74 68 67 69 69 72 74 82 80 83 68 48 42 42 38 34 36 43 48 58
28 28 30 30 30 30 30 32 31 30 30 39 65 85 89 88 84 81 74 72 74 74 72 72 72 76 74 73 75 81 89 88 88 70 52 50 49 41 39 34 38 42 48
28 35 45 42 39 38 39 37 36 36 37 32 30 30 32 45 65 67 71 64 69 75 75 71 73 73 73 75 75 79 86 96 89 82 65 68 68 58 40 36 35 40 44
30 45 47 49 47 48 46 44 44 41 40 41 41 39 34 33 31 33 34 36 55 68 73 76 75 74 78 84 81 86 95 99 96 86 70 67 56 67 71 44 39 37 45
48 49 50 53 52 49 47 46 46 46 45 42 41 42 44 46 45 41 38 36 37 45 43 67 80 70 66 76 77 84 95 97 100 94 78 66 72 65 66 72 62 49 40
51 53 54 55 55 53 51 51 52 54 53 53 52 50 51 50 48 48 51 52 46 41 46 60 66 77 74 76 77 81 91 92 99 100 95 84 79 85 75 86 82 85 64
62 64 65 60 57 57 57 58 59 60 60 58 58 59 58 58 57 57 56 56 61 60 49 62 75 78 78 76 79 76 76 83 94 97 99 97 92 79 85 92 88 91 78
66 66 64 60 61 63 63 63 65 66 64 63 61 61 62 63 64 64 63 60 58 73 73 79 72 81 83 74 68 76 79 88 87 87 99 99 98 94 90 87 89 97 86
69 67 62 61 64 66 67 68 69 69 68 67 66 67 69 72 76 73 72 71 64 58 75 80 76 74 70 74 80 80 81 82 88 94 100 100 99 99 97 96 99 94 96
68 66 68 67 68 68 70 70 70 70 69 70 71 74 78 80 82 82 80 81 83 86 87 82 79 75 72 80 86 87 87 90 93 99 100 100 99 100 100 99 95 93 98
68 67 69 70 72 73 72 73 73 72 71 74 75 75 77 80 82 82 84 87 86 86 84 84 82 79 84 88 92 94 95 97 100 98 99 100 100 100 100 100 100 100 100
65 67 72 77 78 80 79 77 77 76 77 78 78 81 83 83 82 81 81 82 83 87 87 87 87 88 88 90 90 92 94 98 96 98 99 99 100 97 98 96 96 100 100
67 70 79 82 84 84 82 81 82 81 80 80 82 85 86 86 86 85 85 82 82 84 84 81 80 81 83 85 87 89 88 91 92 94 92 95 97 98 98 98 98 99 99
66 72 85 87 86 83 83 84 83 82 82 85 88 89 91 91 92 91 90 86 85 84 84 84 83 82 82 83 87 89 93 94 95 97 99 100 100 100 100 99 99 99 99
69 71 84 90 90 86 86 84 83 85 86 90 92 96 96 96 96 95 94 92 90 90 91 89 87 85 86 89 90 93 96 98 99 99 99 98 96 98 100 100 99 100 99
67 72 78 87 88 86 88 90 88 88 89 91 95 97 97 98 100 100 100 100 100 100 96 95 99 99 98 100 91 92 97 100 100 100 100 100 100 100 99 99 100 99 97
69 76 80 83 85 87 92 96 91 90 93 95 96 99 100 100 100 100 100 99 99 100 100 98 99 99 100 100 93 92 94 96 97 96 95 94 97 99 100 99 99 99 99
73 80 85 86 87 93 99 95 93 94 95 96 98 99 99 99 99 100 100 100 100 98 98 99 96 98 100 98 94 91 91 91 89 81 72 66 63 78 75 70 71 72 72
75 80 80 85 89 98 98 97 99 98 99 100 99 99 99 99 99 99 100 100 100 98 99 97 93 88 89 91 66 65 66 58 57 63 69 60 67 76 84 76 77 80 78
76 82 83 86 89 95 98 99 100 99 100 99 99 99 98 98 100 99 100 100 100 100 88 82 77 80 78 86 76 55 60 58 58 56 61 81 83 86 94 86 84 82 81
81 82 85 90 90 96 95 94 96 96 94 95 96 99 100 98 100 99 94 74 69 69 71 74 74 72 77 82 79 78 58 57 60 63 63 66 88 89 85 83 81 71 77
85 84 91 91 92 96 96 94 91 90 90 92 92 93 97 100 99 74 50 50 54 52 56 57 55 55 59 73 74 74 76 77 65 70 69 72 87 81 74 70 70 72 77
84 84 87 91 94 95 99 98 94 95 97 98 98 95 95 75 49 49 48 49 43 38 36 37 33 34 42 50 59 73 84 78 80 75 87 85 77 70 59 57 69 67 59
84 84 88 95 99 96 95 95 98 93 96 94 88 74 66 63 56 46 39 37 36 31 29 31 35 37 41 52 64 65 64 64 66 69 73 60 74 56 56 56 56 63 69
83 84 86 89 92 91 92 87 88 90 90 84 60 48 43 40 35 33 31 30 29 31 29 31 32 34 37 48 72 73 78 81 82 81 65 47 48 53 57 64 71 77 84
81 84 84 85 86 85 86 86 85 81 78 74 46 36 34 37 32 35 43 42 37 33 30 29 30 32 38 69 73 76 83 82 82 78 66 52 54 56 65 74 76 80 89